Location: Unspecified
(0.0000°N, 0.0000°E)
Time: 00:31:28
(UTC+02:00)

JASON 3 - Visible Passes

Search period start: 02 October 2020 00:00
Search period end: 12 October 2020 00:00
Orbit: 1332 x 1343 km, 66.0° (Epoch: 01 October)

Date Brightness Start Highest point End Pass type
(mag) Time Alt. Az. Time Alt. Az. Time Alt. Az.
02 Oct ? 21:38:01 10° N 21:40:39 20° NNE 21:40:39 20° NNE visible
03 Oct ? 21:59:40 10° N 22:03:59 34° N 22:03:59 34° N visible
04 Oct ? 20:31:04 10° NE 20:34:34 13° ENE 20:35:06 13° ENE visible
04 Oct ? 22:22:07 10° NNW 22:27:42 47° NW 22:27:42 47° NW visible
05 Oct ? 20:50:32 10° NNE 20:57:12 28° ENE 20:59:27 24° E visible
05 Oct ? 22:45:23 10° NW 22:52:07 38° W 22:52:07 38° W visible
06 Oct ? 21:11:51 10° N 21:19:44 52° ENE 21:25:28 20° SE visible
06 Oct ? 23:09:52 10° WNW 23:15:21 20° WSW 23:18:29 16° SW visible
07 Oct ? 21:34:03 10° NNW 21:42:15 86° WSW 21:50:27 10° SSE visible
08 Oct ? 20:03:14 10° NNE 20:09:11 22° ENE 20:15:06 10° ESE visible
08 Oct ? 21:57:02 10° NW 22:04:46 47° WSW 22:12:32 10° S visible
09 Oct ? 20:24:08 10° N 20:31:44 42° ENE 20:39:19 10° SE visible
09 Oct ? 22:21:01 10° WNW 22:27:19 25° WSW 22:33:40 10° SSW visible
10 Oct ? 20:46:05 10° NNW 20:54:15 79° ENE 21:02:27 10° SSE visible
10 Oct ? 22:47:40 10° W 22:49:58 11° WSW 22:52:17 10° SW visible
11 Oct ? 07:07:29 10° SE 07:09:48 11° ESE 07:12:07 10° E visible
11 Oct ? 21:08:47 10° NNW 21:16:45 58° WSW 21:24:46 10° S visible
